Location: The D'Auria's Ocala Star Observatory
(29.0276°N, 82.1742°W)
Time: 16:49:38
(UTC-05:00)

Daily predictions for brighter satellites

Satellite Brightness Start Highest point End
(mag) Time Altitude Azimuth Time Altitude Azimuth Time Altitude Azimuth
Cosmos 1461 2.9 17:50:07 10° NNW 17:54:04 83° WSW 17:58:02 10° SSE
SJ-12 3.9 17:51:15 10° SSE 17:55:16 63° ENE 17:59:19 10° N
CZ-4 R/B 1.5 17:53:30 10° SSE 17:57:42 85° ENE 18:01:53 10° N
SL-27 R/B 3.9 17:55:03 10° NNE 17:57:47 20° ENE 18:00:29 10° ESE
Tiangong 1 1.8 17:56:43 10° SSW 17:59:32 37° SE 18:02:20 10° ENE
Okean 1 Rocket 4.5 17:55:43 10° NNW 17:59:49 42° W 18:03:54 10° SSW
OE (NEXTSAT) 4.5 17:56:45 10° SW 18:00:17 69° SE 18:03:51 10° NE
Cosmos 1844 Rocket 3.2 17:55:53 10° SSW 18:01:23 62° WNW 18:06:57 10° NNE
Cosmos 1975 Rocket 4.1 17:58:35 10° SSW 18:02:44 48° W 18:06:55 10° N
CZ-2C R/B 2.4 17:59:26 10° SSE 18:04:17 75° ENE 18:09:19 10° N
COSMO-SKYMED 1 3.1 18:01:14 10° NNE 18:05:19 40° E 18:09:22 10° S
Cosmos 1544 Rocket 3.9 18:02:04 10° N 18:06:21 44° E 18:10:36 10° SSE
Cosmos 158 Rocket 4.0 18:01:23 10° N 18:06:42 66° ENE 18:11:51 10° SSE
Cosmos 1238 Rocket 2.0 18:05:15 10° S 18:08:20 68° E 18:11:15 10° N
Cosmos 1048 Rocket 4.4 18:04:48 10° NNW 18:10:07 74° WSW 18:15:27 10° S
Cosmos 1844 4.0 18:06:05 10° SSW 18:11:37 70° WNW 18:17:11 10° NNE
AQUARIUS 4.3 18:11:52 10° S 18:16:21 79° WSW 18:20:51 10° NNW
MOS 1 4.5 18:11:11 10° S 18:16:51 79° WSW 18:22:32 10° NNW
Cosmos 1536 Rocket 3.5 18:14:49 10° S 18:19:13 67° E 18:23:39 10° NNE
CORIOLIS 4.2 18:13:54 10° SSE 18:19:20 89° ENE 18:24:46 10° NNW
COSMOS 2441 4.5 18:15:14 10° SSE 18:19:55 53° ENE 18:24:40 10° N
Cosmos 1975 3.7 18:16:36 10° NNE 18:20:06 28° E 18:23:34 10° SE
SPOT 3 Rocket 4.0 18:17:41 10° S 18:22:51 69° WSW 18:28:01 10° NNW
SMAP 3.6 18:20:12 10° S 18:24:48 63° W 18:29:25 10° NNW
YAOGAN 1 3.1 18:22:01 10° S 18:26:17 63° W 18:30:34 10° NNW
Cosmos 2278 Rocket 2.2 18:23:42 10° SSW 18:29:20 85° WNW 18:35:01 10° NNE
SL-24 DEB 4.2 18:26:01 10° N 18:30:46 81° E 18:35:26 10° S
COSMOS 2406 3.8 18:32:04 10° NNW 18:37:42 63° WSW 18:43:22 10° S
SL-8 Rocket 4.5 18:32:21 10° NNW 18:38:25 64° W 18:44:28 10° S
Cosmos 1025 Rocket 4.4 18:35:52 10° SE 18:38:24 20° ESE 18:38:24 20° ESE
IDEFIX/ARIANE 42P 3.6 18:34:12 10° S 18:39:12 48° W 18:44:13 10° NNW
Meteor 1-13 Rocket 4.4 18:34:09 10° SSE 18:39:28 48° E 18:44:57 10° NNE
Fermi 4.3 18:37:56 10° WSW 18:41:57 52° S 18:44:18 22° ESE
Cosmos 1484 Rocket 2.6 18:39:36 10° SSE 18:43:24 84° ENE 18:47:09 10° N
Okean 1-7 Rocket 4.0 18:39:53 10° SSE 18:44:09 41° E 18:46:43 21° NNE
Cosmos 921 Rocket 3.3 18:43:22 10° S 18:47:17 40° E 18:48:30 32° ENE
CZ-3B DEB 3.9 18:45:23 10° WNW 18:48:33 22° NNW 18:54:30 10° NNE
Cosmos 2366 rocket 4.2 18:42:15 10° N 18:48:35 75° W 18:54:50 10° S
OTV 4 1.2 18:47:02 10° NW 18:49:39 36° N 18:49:39 36° N
Cosmos 1455 Rocket 3.8 18:51:42 10° NNW 18:56:01 55° W 19:00:19 10° S
Cosmos 2082 Rocket 4.1 18:56:48 10° NNE 18:57:45 14° NNE 18:57:45 14° NNE
Chunghua 1 4.4 19:00:35 10° WSW 19:04:26 84° NNW 19:04:51 69° NE
Delta 2 Rocket 3.4 19:00:49 10° WSW 19:04:46 70° NNW 19:05:40 52° NE
BREEZE-M DEB (TANK) 3.6 19:02:27 10° NW 19:06:35 55° SW 19:10:26 10° SSE
Cosmos 494 Rocket 4.2 19:05:35 10° NNW 19:10:49 73° WSW 19:16:03 10° S
NOAA 12 3.9 19:07:10 10° SSE 19:12:26 73° ENE 19:17:41 10° N
METEOR-M 4.0 19:07:58 10° SSE 19:13:12 61° ENE 19:18:28 10° N
Cosmos 1809 Rocket 4.4 19:07:50 10° N 19:14:00 86° W 19:20:07 10° S
Cosmos 1500 3.6 19:11:28 10° NNW 19:15:14 62° W 19:19:02 10° S
Cosmos 2239 Rocket 4.5 19:09:43 10° N 19:15:45 52° E 19:21:42 10° SSE
Hubble Space Telescope 2.7 19:13:04 10° WSW 19:16:29 25° SSW 19:18:14 19° SSE
Meteor 2-4 Rocket 3.5 19:11:38 10° S 19:16:59 61° E 19:18:00 51° NE
ATLAS 2AS CENTAUR R/B 2.9 19:11:11 10° NNW 19:19:09 87° WSW 19:26:26 10° SSE
Palapa 6 Rocket 4.1 19:15:24 10° WSW 19:20:56 42° S 19:22:06 37° SSE
Cosmos 1821 Rocket 3.9 19:18:07 10° N 19:24:06 59° E 19:30:06 10° SSE
Delta 128 4.3 19:21:25 10° WSW 19:27:38 57° SSE 19:28:21 53° SE
Tiangong 1 4.0 19:33:24 10° WNW 19:34:09 14° WNW 19:34:09 14° WNW
Meteor 2-8 Rocket 4.2 19:30:56 10° S 19:36:58 78° E 19:37:39 68° NE
GEOS 3 Rocket 3.9 19:39:08 23° SSE 19:42:14 61° WSW 19:47:18 10° NW
ATLAS 3B CENTAUR R/B 2.7 19:45:40 10° W 20:00:01 85° S 20:00:10 84° SSE
Aurora 2 Rocket 4.2 20:03:54 10° WSW 20:13:55 67° S 20:13:55 67° S
FALCON 9 R/B 3.5 20:14:11 10° W 20:26:28 49° NW 20:26:28 49° NW
